Terug naar catalogus

BREEZE-KM R/B

ActiefPO
NORAD 40556·ROCKET BODY·🇷🇺 Russia

Gelanceerd Mar 31, 2015 vanaf Plesetsk Cosmodrome

Loading…

Volgende Passages (komende 24 uur)

TLE

VersSource: Space-Track

Epoch: Sep 14, 2026, 15:42 UTC

1 40556U 15020E   26257.65437022  .00000026  00000-0  60430-4 0  9994
2 40556  82.4913 146.3550 0214456 198.7626 160.5485 12.80561932535609

Volg BREEZE-KM R/B in realtime met AllMySat

Download on the App Store